www.pogodaiklimat.ru

Погода и климат >> Архив погоды >> Индия >> Западная Бенгалия >> Колката


ПОГОДА в Колкате

  • Прогноз погоды в Колкате
  • Монитор погоды в Колкате

АРХИВ ПОГОДЫ в Колкате

Время (UTC), дата Ветер
(напр.,м/с)
 
Видим.   Явления Облачность Т
(С)
Тd
(С)
f
(%)
Тe
(С)
Тes
(С)
Комфортность P
(гПа)
Po
(гПа)
Тmin
(С)
Tmax
(С)
R
(мм)
R24
(мм)
S
(см)
09 9.09 ЮЗ 2 4000 м 9/6 600 м
[Sc diur, vesp Ac trans]
+33.6 +26.4 66 +50 +53 опасность
перегрева
999.6 998.9
12 9.09 ЮЗ 2 4000 м {дождь} 9/6 600 м
[Cb cap Ac trans Ci fib]
+30.8 +26.3 77 +47 +47 опасность
перегрева
999.8 999.1 +34.2 0.2
15 9.09 Ю 1 4000 м 1/1 600 м
[Sc]
+29.4 +26.9 86 +46 +46 опасность
перегрева
1001.4 1000.7 0.2
18 9.09 Ю 2 4000 м 6/4 600 м
[Sc diur, vesp Ac trans]
+29.2 +27.3 90 +47 +47 опасность
перегрева
1002.0 1001.3 0.2
21 9.09 Ю 2 4000 м 4/3 600 м
[Sc Ac trans]
+28.4 +26.7 91 +44 +44 опасность
перегрева
1000.7 1000.0 0.2
00 10.09 ЮЗ 2 4000 м 5/1 600 м
[Sc diur, vesp Ac trans Cc]
+28.2 +27.1 94 +45 +45 опасность
перегрева
1001.4 1000.7 0.2
03 10.09 ЮЗ 2 4000 м 8/6 600 м
[Sc diur, vesp Ac trans]
+30.4 +27.1 83 +48 +51 опасность
перегрева
1003.1 1002.4 +27.7 0.2
06 10.09 ЮЗ 1 4000 м 9/6 600 м
[Cb cap Ac As]
+32.8 +27.0 72 +51 +55 опасность
перегрева
1001.3 1000.6
09 10.09 ЮЗ 2 4000 м 10/6 600 м
[Cb cap As trans]
+32.2 +27.0 74 +50 +52 опасность
перегрева
999.8 999.1
12 10.09 ЮЗ 2 4000 м {гроза} 9/5 600 м
[Sc diur, vesp Ac As]
+31.2 +26.8 78 +49 +49 опасность
перегрева
1000.2 999.5 +33.6
15 10.09 ЮЗ 1 4000 м 6/5 600 м
[Sc diur, vesp Ac trans]
+30.0 +27.2 85 +48 +48 опасность
перегрева
1003.2 1002.5
18 10.09 Ю 1 4000 м 5/3 600 м
[Sc diur, vesp Ac As]
+29.6 +27.4 88 +48 +48 опасность
перегрева
1002.7 1002.0
21 10.09 Ю 2 4000 м 4/3 600 м
[Sc diur, vesp Ac trans]
+29.0 +25.9 83 +43 +43 опасность
перегрева
1001.3 1000.6
00 11.09 ЮЗ 1 4000 м 8/5 600 м
[Cb calv Ac trans]
+28.6 +26.4 88 +44 +44 опасность
перегрева
1001.9 1001.2
03 11.09 штиль 0 4000 м в посл. час дождь 10/5 600 м
[Cb calv As op]
+29.4 +26.6 85 +45 +47 опасность
перегрева
1003.5 1002.8 +27.8 0.0
06 11.09 Ю 2 2000 м гроза, ливневой дождь 10/6 600 м
[Cb cap As op Ci fib]
+26.2 +25.6 97 +39 +43 очень
душно
1003.8 1003.1 37
09 11.09 З 2 4000 м {гроза, дождь} 8/4 600 м
[Cu med, cong Ac As Cc]
+29.6 +26.5 83 +45 +50 опасность
перегрева
1001.1 1000.4 41
12 11.09 З 2 4000 м {гроза, дождь} 9/3 600 м
[Cu med, cong Ac trans Cc]
+29.2 +27.0 88 +46 +46 опасность
перегрева
1001.4 1000.7 +30.5 41
15 11.09 З 1 4000 м 8/6 600 м
[Sc diur, vesp Ac As]
+28.4 +26.4 89 +43 +43 опасность
перегрева
1004.2 1003.5 41
18 11.09 ЮЗ 1 4000 м слаб. дождь 10/8 300 м
[Cb cap As op]
+27.8 +26.4 92 +42 +42 опасность
перегрева
1004.2 1003.5 41
21 11.09 ЮЗ 1 4000 м слаб. дождь 10/8 300 м
[Sc diur, vesp As op]
+27.4 +26.6 95 +42 +42 опасность
перегрева
1002.5 1001.8 43
00 12.09 штиль 0 4000 м {дождь} 8/5 600 м
[Sc diur, vesp Ac As]
+26.2 +25.8 98 +39 +39 очень
душно
1009.3 1008.6 44
03 12.09 Ю 1 2000 м мгла {гроза, дождь} 10/8 300 м
[Cb calv Ac As]
+27.6 +26.5 94 +42 +43 опасность
перегрева
1005.3 1004.6 +25.8 44
06 12.09 Ю 1 2000 м гроза, ливневой дождь 10/9 300 м
[Cb cap Ac As]
+26.4 +25.8 97 +39 +40 очень
душно
1005.4 1004.7 5
09 12.09 З 2 4000 м в посл. час дождь {гроза} 9/6 600 м
[Sc diur, vesp Ac trans]
+27.8 +25.5 87 +41 +43 опасность
перегрева
1003.3 1002.6 13
12 12.09 З 2 4000 м {гроза, дождь} 6/4 600 м
[Sc diur, vesp Ac As]
+28.2 +25.4 85 +41 +41 опасность
перегрева
1004.0 1003.3 +28.7 13
15 12.09 Ю 2 4000 м 9/6 600 м
[Sc diur, vesp As op]
+27.8 +26.4 92 +42 +42 опасность
перегрева
1006.7 1006.0 13
18 12.09 Ю 2 4000 м 8/4 600 м
[Sc diur, vesp Ac As]
+27.8 +26.1 90 +42 +42 опасность
перегрева
1007.0 1006.3 13
21 12.09 Ю 1 4000 м слаб. дождь 6/4 600 м
[Sc diur, vesp Ac As]
+27.4 +26.0 92 +41 +41 опасность
перегрева
1005.8 1005.1 13
00 13.09 Ю 2 4000 м {дождь} 9/5 600 м
[Sc diur, vesp Ac As]
+27.0 +26.2 95 +41 +41 опасность
перегрева
1006.3 1005.6 13
03 13.09 ЮЗ 1 4000 м в посл. час дождь 6/4 600 м
[Sc diur, vesp Ac trans]
+28.2 +27.4 95 +45 +51 опасность
перегрева
1008.2 1007.5 +26.6 14
06 13.09 ЮЗ 3 4000 м {дождь} 8/5 600 м
[Sc diur, vesp Ac trans]
+30.2 +26.6 81 +47 +52 опасность
перегрева
1007.8 1007.1 0.1
09 13.09 Ю 3 4000 м {дождь} 9/5 600 м
[Sc diur, vesp Ac As]
+30.8 +26.6 78 +47 +49 опасность
перегрева
1005.1 1004.4 0.0
12 13.09 Ю 2 4000 м {дождь} 9/5 600 м
[Sc diur, vesp Ac As]
+29.4 +26.0 82 +44 +44 опасность
перегрева
1005.4 1004.7 +32.0 0.1
15 13.09 Ю 2 4000 м 5/1 600 м
[Sc Ac trans]
+28.6 +26.4 88 +44 +44 опасность
перегрева
1006.9 1006.2 0.1
18 13.09 Ю 1 4000 м 9/3 600 м
[Sc As trans]
+28.0 +26.6 92 +43 +43 опасность
перегрева
1006.8 1006.1 0.1
21 13.09 штиль 0 4000 м 8/4 600 м
[Sc As trans]
+27.6 +26.5 94 +42 +42 опасность
перегрева
1006.1 1005.4 0.1
00 14.09 Ю 1 4000 м 10/4 600 м
[Sc diur, vesp Ac As]
+27.6 +26.5 94 +42 +42 опасность
перегрева
1006.5 1005.8 0.1
03 14.09 ЮЗ 2 4000 м слаб. дождь 10/8 300 м
[Sc diur, vesp As op]
+30.0 +26.9 84 +47 +48 опасность
перегрева
1008.1 1007.4 +27.0 0.2
06 14.09 Ю 3 4000 м в посл. час дождь 9/8 300 м
[Sc diur, vesp Ac As]
+30.6 +26.4 78 +47 +49 опасность
перегрева
1007.1 1006.4 0.2
09 14.09 ЮЗ 2 4000 м в посл. час дождь 9/5 600 м
[Sc diur, vesp As op]
+32.0 +26.1 71 +48 +50 опасность
перегрева
1004.8 1004.1 0.2
12 14.09 ЮЗ 2 4000 м {дождь} 5/3 600 м
[Sc diur, vesp Ac trans]
+31.0 +26.6 77 +47 +47 опасность
перегрева
1001.9 1001.2 +33.9 0.2
15 14.09 Ю 1 4000 м 4/3 600 м
[Sc Ac trans]
+29.6 +26.8 85 +46 +46 опасность
перегрева
1007.2 1006.5 0.2
18 14.09 ЮЗ 1 4000 м 3/3 600 м
[Sc]
+28.8 +26.9 89 +45 +45 опасность
перегрева
1007.3 1006.6 0.2
21 14.09 ЮВ 1 4000 м 4/4 600 м
[Sc]
+28.4 +27.0 92 +45 +45 опасность
перегрева
1006.0 1005.3 0.2
00 15.09 ЮВ 2 4000 м 6/4 600 м
[Sc Ac trans]
+27.8 +26.7 94 +43 +43 опасность
перегрева
1006.3 1005.6 0.2
03 15.09 Ю 2 4000 м 3/3 600 м
[Sc diur, vesp]
+30.0 +25.8 78 +45 +51 опасность
перегрева
1007.3 1006.6 +27.3 0.2
06 15.09 Ю 2 4000 м 5/5 600 м
[Sc diur, vesp]
+33.8 +26.0 64 +50 +59 опасность
перегрева
1006.3 1005.6
09 15.09 Ю 2 4000 м 5/4 600 м
[Sc diur, vesp Ac trans]
+33.2 +25.3 63 +47 +53 опасность
перегрева
1003.3 1002.6
12 15.09 ЮЗ 2 4000 м 8/0 2000 м
[Ac trans Cc]
+31.8 +24.7 66 +45 +45 опасность
перегрева
1003.9 1003.2 +34.4
15 15.09 ЮЗ 1 4000 м 4/1 600 м
[Sc Ci fib]
+29.8 +26.5 83 +46 +46 опасность
перегрева
1005.9 1005.2
18 15.09 Ю 1 4000 м 4/3 600 м
[Sc Ci fib]
+28.8 +26.3 86 +44 +44 опасность
перегрева
1006.0 1005.3
21 15.09 Ю 1 4000 м 5/4 600 м
[Sc Ac trans]
+28.2 +26.2 89 +43 +43 опасность
перегрева
1004.8 1004.1
00 16.09 Ю 1 4000 м 8/1 600 м
[Sc Ac trans Ci fib]
+27.8 +26.7 94 +43 +43 опасность
перегрева
1005.1 1004.4
03 16.09 Ю 2 4000 м 6/4 600 м
[Sc diur, vesp Ac trans]
+30.2 +26.9 83 +47 +52 опасность
перегрева
1006.1 1005.4 +27.4
06 16.09 Ю 2 4000 м 8/5 600 м
[Cu med, cong Ac trans]
+33.4 +24.9 61 +47 +53 опасность
перегрева
1005.4 1004.7

 

Местоположение метеостанции Колката (Западная Бенгалия, Индия): широта 22.53 долгота 88.33 высота над уровнем моря 6 м.

В архиве по умолчанию представлена погода в Колкате за последнюю неделю. Архивные данные за месяц целиком и за предыдущие месяцы, начиная с января 2011 года, Вы можете получить, выбрав интересующий диапазон дат из раскрывающегося списка и нажав кнопку "Ввод!".


*Определитесь, кто Вы:
робот инопланетянин человек

Внимание! Время в таблицах - всемирное. Для получения местного времени необходимо прибавить поправку, которая равна 5.5 ч.

Смотрите также архив погоды в соседних городах и на ближайших метеорологических станциях:

Погода в Колкате (Западная Бенгалия, Индия) (18 км)
Погода в Улуберии (Западная Бенгалия, Индия) (39 км)
Погода в Даймонд Харбор (Западная Бенгалия, Индия) (41 км)
Погода в Каннинге (Западная Бенгалия, Индия) (47 км)
Погода в Багати (Западная Бенгалия, Индия) (50 км)
Погода в Бейсирхэте (Западная Бенгалия, Индия) (57 км)
Погода в Халдии (Западная Бенгалия, Индия) (62 км)
Погода в Саткхире (Бангладеш) (80 км)
Погода в Бардхамане (Западная Бенгалия, Индия) (92 км)
Погода в Кришнанагаре (Западная Бенгалия, Индия) (99 км)

Пояснения к столбцам:

Ветер - указаны скорость ветра в м/с - средняя за 10 мин, порывы в срок и между сроками (в фигурных скобках) и направление, откуда дует ветер: С - северный, СВ - северо-восточный, В - восточный, ЮВ - юго-восточный, Ю - южный, ЮЗ - юго-западный, З - западный, СЗ - северо-западный.
Видимость - горизонтальная дальность видимости в метрах или километрах. При видимости от 1 до 10 км при отсутствии осадков обычно наблюдается дымка, при ухудшении видимости до 1 км и менее - туман. В сухую погоду видимость может ухудшаться дымом, пылью или мглою.
Явления - указаны атмосферные явления, наблюдавшиеся в срок или в последний час перед сроком; фигурными скобками обозначены явления, наблюдавшиеся между сроками (за 1-3 часа до срока); квадратными скобками обозначены град или гололедные отложения с указанием их диаметра в мм.
Облачность - указаны через наклонную черту общая и нижняя облачность в баллах и высота нижней границы облаков в метрах; квадратными скобками обозначены формы облаков: Ci - перистые, Cs - перисто-слоистые, Cc - перисто-кучевые, Ac - высококучевые, As - высокослоистые, Sc - слоисто-кучевые, Ns - слоисто-дождевые, Cu - кучевые, Cb - кучево-дождевые. Подробнее классификацию облаков см. в Атласе облаков (PDF).
T - Температура воздуха - температура, измеренная на высоте 2 м над землей.
Td - Температура точки росы - температура, при понижении до которой содержащийся в воздухе водяной пар достигнет насыщения.
f - Относительная влажность воздуха - влажноcть воздуха, измеренная на высоте 2 м над землей.
Te - Эффективная температура - температура, которую ощущает одетый по сезону человек в тени. Характеристика душности погоды. При расчете учитывается влияние влажности воздуха и скорости ветра на теплоощущения человека.
Tes - Эффективная температура на солнце - температура, которую ощущает человек, с поправкой на солнечный нагрев. Характеристика знойности погоды. Зависит от высоты солнца над горизонтом, облачности и скорости ветра. Ночью, в пасмурную погоду, а также при ветре 12 м/с и более поправка равна нулю.
P - Атмосферное давление - приведенное к уровню моря атмосферное давление.
Po - Атмосферное давление - измеренное на уровне метеостанции атмосферное давление.
Tmin - Минимальная температура - минимум температуры воздуха на высоте 2 м над землей.
Tmax - Максимальная температура - максимум температуры воздуха на высоте 2 м над землей.
R - Количество осадков - Количество выпавших осадков за период времени, мм. При наведении курсора мыши на число - период времени, за который выпало указанное количество осадков.
R24 - Количество осадков - Количество выпавших осадков за 24 часа, мм.
S - Снежный покров - Высота снежного покрова, см. При наведении курсора мыши на число - состояние снежного покрова и степень покрытия местности в баллах.